Regional Weather Roundup
Issued by NWS Northern Indiana

Home | Current Version | Previous Version | Text Only | Print | Product List | Glossary Off
Versions: 1 2 3 4 5 6 7 8 9 10 11 12 13 14 15 16 17 18 19 20 21 22 23 24 25 26 27 28 29 30 31 32 33 34 35 36 37 38 39 40 41 42 43 44 45 46 47 48 49 50

000
ASUS43 KIWX 180700
RWRIWX

KIWX WEATHER ROUNDUP
NATIONAL WEATHER SERVICE NORTHERN INDIANA
200 AM EST MON DEC 18 2017

NOTE: "FAIR" INDICATES FEW OR NO CLOUDS BELOW 12,000 FEET WITH NO
SIGNIFICANT WEATHER AND/OR OBSTRUCTIONS TO VISIBILITY.

* THESE STATIONS ARE NOT UNDER NWS QUALITY CONTROL. THEY ALSO MAY NOT
  REPORT WEATHER SUCH AS PRECIPITATION OR FOG.

INZ001>027-180800-
NORTHERN INDIANA

CITY           SKY/WX    TMP DP  RH WIND       PRES   REMARKS
KNOX*          CLOUDY    41  37  87 SW8       29.99F
SOUTH BEND     CLOUDY    38  38 100 S9        29.98F
GOSHEN         CLOUDY    38  36  92 SW7       29.99F
MONTICELLO*    CLOUDY    40  38  93 SW9       30.01S
WARSAW*        CLOUDY    39  36  87 SW5       30.00F
FORT WAYNE     CLOUDY    38  36  92 SW9       30.02F
PERU/GRISSOM   CLOUDY    40  40 100 SW8       30.01S

$$
INZ028>050-180800-
CENTRAL INDIANA

CITY           SKY/WX    TMP DP  RH WIND       PRES   REMARKS
LAFAYETTE      CLOUDY    41  39  93 SW7       30.02F
KOKOMO*        CLOUDY    40  37  89 SW12      30.03F
MUNCIE*        CLOUDY    42  35  76 SW8       30.03F
INDIANAPOLIS   CLOUDY    41  38  89 SW12      30.05F

$$
MIZ043>046-050>051-056>058-064>065-071>073-077>080-180800-
SOUTHWEST LOWER MICHIGAN

CITY           SKY/WX    TMP DP  RH WIND       PRES   REMARKS
BATTLE CREEK   CLOUDY    38  35  89 SW13      29.96F
BENTON HARBOR  CLOUDY    41  36  82 S8        29.96F
COLDWATER*     CLOUDY    38  37  94 SW7       29.98S
HILLSDALE*     CLOUDY    36  34  93 SW6       29.96F FOG
HOLLAND        CLOUDY    36  35  96 SW5       29.95F FOG
GRAND RAPIDS   CLOUDY    35  33  92 SW8       29.95R WCI  29
KALAMAZOO      CLOUDY    39  35  86 SW9       29.96F
STURGIS*       CLOUDY    38  37  94 SW8       29.98S
THREE RIVERS*  CLOUDY    38  36  91 SW8       29.98S

$$
OHZ001>008-015>018-024>025-180800-
NORTHWEST OHIO

CITY           SKY/WX    TMP DP  RH WIND       PRES   REMARKS
DEFIANCE       CLOUDY    39  33  79 SW8       30.01F
FINDLAY        CLOUDY    39  32  76 SW9       30.02F
TOLEDO EXPRESS CLOUDY    39  36  89 SW9       30.01S
TOLEDO METCALF CLOUDY    38  34  85 SW7       30.02F
LIMA           CLOUDY    38  35  89 SW10      30.03S

$$
AND FOR LAKE MICHIGAN COASTAL AND OPEN LAKE BUOY OBSERVATIONS

STATION/POSITION TEMP    WIND        PRES    VSBY  WAVE
                 AIR SEA DIR/SP/G                  HT/PER
                 (F)     (DEG/KT/KT) (MB)    (MI)  (FT/S)
CALUMET HARBOR    42     200/  7/ 10 1014.1F
MICHIGAN CITY     42     190/  9/ 11   N/A
BURNS HARBOR      43     210/  9/ 14 1015.6F
SAINT JOSEPH      42     200/ 12/ 19 1015.6

$$
&&




USA.gov is the U.S. government's official web portal to all federal, state and local government web resources and services.